Overview Statistics Trail Chart Weather Telemetry Raw packets
 

This is the latest recevied weather packets stored in our database for station/object KG5MMT-15. If no packets are shown the sender has not sent any weather packets the latest 10 day(s).

<< 90 91 92 93 94 95 96 >>
Time Temp. Humidity Pressure Rain* Wind** Luminosity Snow
1788036476 30° C 21% 0 hPa 0 mm - - -
1788036176 30° C 23% 0 hPa 0 mm - - -
1788035876 30° C 25% 0 hPa 0 mm - - -
1788035576 28.89° C 23% 0 hPa 0 mm - - -
1788035276 28.89° C 23% 0 hPa 0 mm - - -
1788034976 29.44° C 23% 0 hPa 0 mm - - -
1788034676 29.44° C 21% 0 hPa 0 mm - - -
1788034376 29.44° C 22% 0 hPa 0 mm - - -
1788034076 29.44° C 20% 0 hPa 0 mm - - -
1788033776 30° C 21% 0 hPa 0 mm - - -
1788033476 29.44° C 21% 0 hPa 0 mm - - -
1788033176 30° C 22% 0 hPa 0 mm - - -
1788032876 30° C 21% 0 hPa 0 mm - - -
1788032577 29.44° C 21% 0 hPa 0 mm - - -
1788032276 28.89° C 23% 0 hPa 0 mm - - -
1788031976 28.89° C 22% 0 hPa 0 mm - - -
1788031677 28.89° C 24% 0 hPa 0 mm - - -
1788031377 29.44° C 23% 0 hPa 0 mm - - -
1788031077 29.44° C 23% 0 hPa 0 mm - - -
1788030777 29.44° C 23% 0 hPa 0 mm - - -
1788030477 29.44° C 21% 0 hPa 0 mm - - -
1788030177 30.56° C 22% 0 hPa 0 mm - - -
1788029877 29.44° C 21% 0 hPa 0 mm - - -
1788029577 31.11° C 18% 0 hPa 0 mm - - -
1788029277 30.56° C 21% 0 hPa 0 mm - - -

* Rain latest hour (hover to see other rain measurements)
** Current wind speed in m/s (hover to see current wind gust speed)